Location: ?ejkovice
(49.0137°N, 14.3821°E)
Time: 16:58:08
(UTC+00:00)

EXPRESS MD2 - Pass Details

Date: 23 May 2024
Orbit: 262 x 3335 km, 49.9° (Epoch: 13 June)

Event Time Altitude Azimuth Distance (km) Brightness Sun altitude
Exits shadow 01:27:13 25° 211° (SSW) 817 3.6 -12.9°
Maximum altitude 01:28:35 47° 150° (SSE) 601 3.3 -12.8°
Drops below altitude 10° 01:32:51 10° 77° (ENE) 2,110 7.0 -12.4°
Sets 01:36:08 0° 73° (ENE) 3,513 8.4 -12.1°
